Regional Weather Roundup
Issued by NWS

Home | Current Version | Previous Version | Graphics & Text | Print | Product List | Glossary On
Versions: 1 2 3 4 5 6 7 8 9 10 11 12 13 14 15 16 17 18 19 20 21 22 23 24 25 26 27 28 29 30 31 32 33 34 35 36 37 38 39 40 41 42 43 44 45 46 47 48 49 50
000
ASUS45 KPSR 280300
RWRAZ

ARIZONA HOURLY REGIONAL WEATHER ROUNDUP
NATIONAL WEATHER SERVICE PHOENIX AZ
800 PM MST WED MAY 27 2015

NOTE: FAIR INDICATES FEW OR NO CLOUDS BELOW 12,000 FEET WITH NO
SIGNIFICANT WEATHER AND/OR OBSTRUCTIONS TO VISIBILITY.

AZZ001>003-036-280400-
NORTHWEST ARIZONA

CITY           SKY/WX    TMP DP  RH WIND       PRES   REMARKS
KINGMAN        CLEAR     76  17  11 SW10      29.96R
$$

AZZ004>008-015-016-018-280400-
NORTH CENTRAL ARIZONA

CITY           SKY/WX    TMP DP  RH WIND       PRES   REMARKS
GRAND CANYON   MOCLDY    61  33  35 SW5       30.14R
WILLIAMS       PTCLDY    59  27  29 S7        30.23R
PRESCOTT       CLEAR     67  31  26 SW7       30.07R
FLAGSTAFF      NOT AVBL
PAYSON         MOCLDY    66  25  20 CALM      30.09S
PAGE           PTCLDY    79  35  20 N3        29.96R
$$

AZZ009>014-017-280400-
NORTHEAST ARIZONA

CITY           SKY/WX    TMP DP  RH WIND       PRES   REMARKS
WINSLOW        NOT AVBL
SAINT JOHNS    MOCLDY    65  24  21 W8        30.08R
WINDOW ROCK    CLOUDY    63  24  22 CALM      30.15R
$$

AZZ023-280400-
GREATER PHOENIX AREA

CITY           SKY/WX    TMP DP  RH WIND       PRES   REMARKS
PHOENIX        MOCLDY    91  27  10 W9        29.81R
GLENDALE       MOCLDY    91  28  10 W5        29.83R
LUKE AFB       PTCLDY    87  34  15 W5        29.81R
DEER VALLEY    PTCLDY    86  30  13 W5        29.84R
SCOTTSDALE     PTCLDY    87  32  14 W3        29.86R
MESA-FALCON    MOCLDY    86  28  12 W8        29.83R
MESA-GATEWAY   PTCLDY    86  34  15 NW8       29.85R
$$

AZZ027-028-280400-
SOUTHWEST MARICOPA COUNTY AND PINAL COUNTY

CITY           SKY/WX    TMP DP  RH WIND       PRES   REMARKS
CASA GRANDE    CLEAR     86  37  17 NW9       29.84R
$$

AZZ503-504-507>509-280400-
SOUTHEAST ARIZONA

CITY           SKY/WX    TMP DP  RH WIND       PRES   REMARKS
TUCSON         PTCLDY    85  16   7 W5        29.92R
DAVIS-MONTHAN  CLEAR     84  19   8 W6        29.91R
RYAN FIELD       N/A     84  19   9 S8        29.91R
NOGALES        CLEAR     76  20  12 SE5       30.00R
SIERRA VISTA   CLEAR     74   7   7 SW10      30.06R
SAFFORD        CLOUDY    84  20   9 NW13      29.90R
$$

AZZ020-021-025-026-031-280400-
SOUTHWEST ARIZONA

CITY           SKY/WX    TMP DP  RH WIND       PRES   REMARKS
YUMA           NOT AVBL
$$

CAZ031-033-041-043-047-048-061-280400-
SOUTHERN CALIFORNIA

CITY           SKY/WX    TMP DP  RH WIND       PRES   REMARKS
DOWNTOWN L.A.  CLEAR     62  54  74 W7        29.97R
L.A. AIRPORT   PTCLDY    60  55  83 W10       29.98R
SAN DIEGO      PTCLDY    63  54  72 NW6       29.99R
BURBANK        CLEAR     63  53  70 S9        29.95R
ONTARIO        CLEAR     66  53  63 W10       29.95R
RIVERSIDE      CLEAR     67  54  63 W9        29.95R
PALM SPRINGS   CLEAR     88  49  25 NW13      29.81R
EL CENTRO NAS  PTCLDY    89  45  21 SE7       29.78R
IMPERIAL       CLEAR     91  45  20 SE6       29.76R
BLYTHE         CLEAR     88  45  22 S9        29.78R
$$

NVZ020-UTZ003-280400-
SOUTHERN NEVADA-UTAH

CITY           SKY/WX    TMP DP  RH WIND       PRES   REMARKS
LAS VEGAS      NOT AVBL
SALT LAKE CITY LGT RAIN  56  49  77 N14       30.09R
$$

NMZ009-TXZ055-280400-
NEW MEXICO-WEST TEXAS

CITY           SKY/WX    TMP DP  RH WIND       PRES   REMARKS
ALBUQUERQUE    CLOUDY    73  32  22 NE12      30.05S
EL PASO        MOCLDY    85  20   9 NW5       29.94R
$$


........................KEY........................
SKY/WX - SKY CONDITION/WEATHER
TMP    - TEMPERATURE IN FAHRENHEIT
DP     - DEW POINT IN FAHRENHEIT
RH     - RELATIVE HUMIDITY IN PERCENT
WIND   - DIRECTION AND SPEED IN MILES PER HOUR (MPH)
VRB    - VARIABLE WIND DIRECTION
PRES   - MEAN SEA LEVEL PRESSURE IN INCHES OF MERCURY
         F - FALLING PRESSURE   R - RISING PRESSURE
         S - STEADY PRESSURE
VSB    - VISIBILITY IN MILES
HX     - HEAT INDEX IN FAHRENHEIT
WCI    - WIND CHILL INDEX IN FAHRENHEIT
TC     - TEMPERATURE IN CELSIUS WHICH IS ALSO KNOWN AS
         TEMPERATURE IN CENTIGRADE
AFB    - AIR FORCE BASE
         LUKE AFB IS LUKE AIR FORCE BASE
         DAVIS-MONTHAN IS DAVIS-MONTHAN AIR FORCE BASE
NAS    - NAVAL AIR STATION
         EL CENTRO NAS IS EL CENTRO NAVAL AIR STATION
N/A    - NOT AVAILABLE




USA.gov is the U.S. government's official web portal to all federal, state and local government web resources and services.